Regional Weather Roundup
Issued by NWS Newport/Morehead, NC

Current Version | Previous Version | Text Only | Print | Product List | Glossary On
Versions: 1 2 3 4 5 6 7 8 9 10 11 12 13 14 15 16 17 18 19 20 21 22 23 24 25 26 27 28 29 30 31 32 33 34 35 36 37 38 39 40 41 42 43 44 45 46 47 48 49 50
000 ASUS42 KMHX 011110 RWRMHX WEATHER ROUNDUP FOR EASTERN NORTH CAROLINA NATIONAL WEATHER SERVICE NEWPORT/MOREHEAD CITY NC 600 AM EST SUN FEB 01 2015 NOTE: "FAIR" INDICATES FEW OR NO CLOUDS BELOW 12,000 FEET WITH NO SIGNIFICANT WEATHER AND/OR OBSTRUCTIONS TO VISIBILITY NCZ015>017-031-032-045>047-102-103-011200- NORTH COAST CITY SKY/WX TMP DP RH WIND PRES REMARKS EDENTON CLEAR 38 24 56 W6 30.29R ELIZABETH CITY CLEAR 32 20 61 W5 30.29R KITTY HAWK SUNNY 33 27 77 CALM 30.28S MANTEO CLEAR 34 27 75 CALM 30.30R $$ NCZ045>047-081-094-103-104-011200- CENTRAL COAST CITY SKY/WX TMP DP RH WIND PRES REMARKS FRISCO CLEAR 38 31 76 W6 30.31R SWANQUARTER N/A 37 N/A N/A W6 30.27S $$ NCZ095-097-098-100-101-011200- SOUTHERN COAST CITY SKY/WX TMP DP RH WIND PRES REMARKS BEAUFORT MOCLDY 38 33 82 W6 30.32S CEDAR ISLAND N/A 37 N/A N/A W6 30.33S JACKSONVILLE CLOUDY 37 26 64 W5 30.32R PINEY ISLAND N/A N/A N/A N/A MISG 30.31S WILMINGTON CLOUDY 36 32 85 CALM 30.31F $$ NCZ011>013-027>030-043-044-078>080-089-090>093-098-011200- COASTAL PLAIN CITY SKY/WX TMP DP RH WIND PRES REMARKS AHOSKIE CLEAR 27 20 75 CALM 30.30R CLINTON CLOUDY 37 26 65 CALM 30.30F ELIZABETHTOWN CLOUDY 39 27 60 CALM 30.31R GOLDSBORO MOCLDY 36 27 69 CALM 30.28R GREENVILLE PTCLDY 36 21 55 SW3 30.31R HAVELOCK MOCLDY 36 25 64 SW8 30.33R KENANSVILLE MOCLDY 33 27 79 CALM 30.31S KINSTON NOT AVBL NEW BERN PTCLDY 37 24 59 SW7 30.32S RICHLANDS MOCLDY 34 27 75 SW3 30.33R ROCKY MOUNT CLOUDY 36 21 54 CALM 30.28S WASHINGTON CLEAR 32 21 63 CALM 30.30R WHITEVILLE CLOUDY 38 29 68 CALM 30.30S $$ AMZ130-135-150-152-154-156-158-170-250-252-270-ANZ085-086-088-633-658-670-011200- MARINE OBSERVATIONS STATION/POSITION TIME TEMP WIND PRES WAVE SWELL AIR SEA DIR/SP/G HT/PER HT/PER (UTC) (F) (DEG/KT/KT) (MB) (FT/S) (FT/S) CHESAPEAKE LIGHT 1000 37 260/ 3/ 3 1025.9 64 E VA BEACH 1100 41 48 350/ 4/ 6 1025.4 4/ 8 3/ 8 DUCK 1100 37 41 230/ 7/ 9 1024.7 2 E DUCK 1100 40 N/A 3/ 8 10 NE DUCK 1100 43 N/A 3/ 7 2/11 OREGON INLET 1100 38 38 240/ 10/ 12 1025.7 13E OREGON INLT 1100 43 N/A 5/11 3/11 HATTERAS CG 1100 42 41 250/ 8/ 13 1026.5 DIAMOND BUOY 1100 51 71 270/ 17/ 21 1026.0 8/11 7/11 17 S OCRACOKE NOT AVBL CAPE LOOKOUT 1000 47 270/ 9/ 9 1026.4 BEAUFORT LAB 1100 43 45 290/ 3/ 4 1025.5 27 SE WRIGHTSVLE NOT AVBL 5 SE WRIGHTSVLE 1000 47 51 260/ 10/ 12 1026.4 225 S CAPE HAT 1009 57 70 340/ 6/ 8 1027.0 8/11 8/11 41 SE CHARLESTON 1100 57 70 140/ 4/ 6 1025.6 4/10 3/10 $$

USA.gov is the U.S. government's official web portal to all federal, state and local government web resources and services.